This is the latest recevied weather packets stored in our database for station/object W7MB. If no packets are shown the sender has not sent any weather packets the latest 10 day(s).
| Time | Temp. | Humidity | Pressure | Rain* | Wind** | Luminosity | Snow |
|---|---|---|---|---|---|---|---|
| 1778078884 | 7.22° C | 61% | 1015.1 hPa | 0 mm | - | - | - |
| 1778078523 | 6.67° C | 63% | 1015.1 hPa | 0 mm | - | - | - |
| 1778078163 | 6.67° C | 65% | 1015.1 hPa | 0 mm | - | - | - |
| 1778077803 | 6.67° C | 64% | 1015 hPa | 0 mm | - | - | - |
| 1778077443 | 6.11° C | 64% | 1015.1 hPa | 0 mm | - | - | - |
| 1778077083 | 6.11° C | 66% | 1015.1 hPa | 0 mm | - | - | - |
| 1778076723 | 5.56° C | 67% | 1015.2 hPa | 0 mm | - | - | - |
| 1778076364 | 5.56° C | 70% | 1015.1 hPa | 0 mm | - | - | - |
| 1778076004 | 5.56° C | 71% | 1015.1 hPa | 0 mm | - | - | - |
| 1778075643 | 5.56° C | 68% | 1015.1 hPa | 0 mm | - | - | - |
| 1778075283 | 5.56° C | 70% | 1015.2 hPa | 0 mm | - | - | - |
| 1778074923 | 5.56° C | 69% | 1015.2 hPa | 0 mm | - | - | - |
| 1778074563 | 5.56° C | 66% | 1015 hPa | 0 mm | - | - | - |
| 1778074203 | 5.56° C | 66% | 1014.9 hPa | 0 mm | - | - | - |
| 1778073843 | 5° C | 69% | 1014.9 hPa | 0 mm | - | - | - |
| 1778073483 | 5° C | 70% | 1014.8 hPa | 0 mm | - | - | - |
| 1778073123 | 5° C | 71% | 1014.8 hPa | 0 mm | - | - | - |
| 1778072763 | 5° C | 73% | 1014.9 hPa | 0 mm | - | - | - |
| 1778072404 | 5° C | 73% | 1014.9 hPa | 0 mm | - | - | - |
| 1778072043 | 5° C | 73% | 1014.9 hPa | 0 mm | - | - | - |
| 1778071683 | 5.56° C | 74% | 1014.9 hPa | 0 mm | - | - | - |
| 1778071323 | 5.56° C | 74% | 1014.8 hPa | 0 mm | - | - | - |
| 1778070963 | 5.56° C | 74% | 1014.7 hPa | 0 mm | - | - | - |
| 1778070603 | 5.56° C | 75% | 1014.8 hPa | 0 mm | - | - | - |
| 1778070243 | 5.56° C | 74% | 1014.7 hPa | 0 mm | - | - | - |
* Rain latest hour (hover to see other rain measurements)
** Current wind speed in m/s (hover to see current wind gust speed)